Index of /20260417/WXO-DD/model_rdps/10km/18/067
Name Last modified Size Description
Parent Directory -
20260417T18Z_MSC_RDPS_AbsoluteVorticity_IsbL-0250_RLatLon0.09_PT067H.grib2 2026-04-17 21:00 599K
20260417T18Z_MSC_RDPS_AbsoluteVorticity_IsbL-0500_RLatLon0.09_PT067H.grib2 2026-04-17 21:00 557K
20260417T18Z_MSC_RDPS_AbsoluteVorticity_IsbL-0700_RLatLon0.09_PT067H.grib2 2026-04-17 21:00 620K
20260417T18Z_MSC_RDPS_AbsoluteVorticity_IsbL-0850_RLatLon0.09_PT067H.grib2 2026-04-17 21:00 793K
20260417T18Z_MSC_RDPS_AirTemp_AGL-120m_RLatLon0.09_PT067H.grib2 2026-04-17 21:00 385K
20260417T18Z_MSC_RDPS_AirTemp_AGL-2m_RLatLon0.09_PT067H.grib2 2026-04-17 21:00 636K
20260417T18Z_MSC_RDPS_AirTemp_AGL-40m_RLatLon0.09_PT067H.grib2 2026-04-17 21:00 403K
20260417T18Z_MSC_RDPS_AirTemp_AGL-80m_RLatLon0.09_PT067H.grib2 2026-04-17 21:00 394K
20260417T18Z_MSC_RDPS_AirTemp_IsbL-0001_RLatLon0.09_PT067H.grib2 2026-04-17 21:00 306K
20260417T18Z_MSC_RDPS_AirTemp_IsbL-0005_RLatLon0.09_PT067H.grib2 2026-04-17 21:00 339K
20260417T18Z_MSC_RDPS_AirTemp_IsbL-0010_RLatLon0.09_PT067H.grib2 2026-04-17 21:00 310K
20260417T18Z_MSC_RDPS_AirTemp_IsbL-0020_RLatLon0.09_PT067H.grib2 2026-04-17 21:00 327K
20260417T18Z_MSC_RDPS_AirTemp_IsbL-0030_RLatLon0.09_PT067H.grib2 2026-04-17 21:00 352K
20260417T18Z_MSC_RDPS_AirTemp_IsbL-0050_RLatLon0.09_PT067H.grib2 2026-04-17 21:00 331K
20260417T18Z_MSC_RDPS_AirTemp_IsbL-0100_RLatLon0.09_PT067H.grib2 2026-04-17 21:00 428K
20260417T18Z_MSC_RDPS_AirTemp_IsbL-0150_RLatLon0.09_PT067H.grib2 2026-04-17 21:00 421K
20260417T18Z_MSC_RDPS_AirTemp_IsbL-0175_RLatLon0.09_PT067H.grib2 2026-04-17 21:00 416K
20260417T18Z_MSC_RDPS_AirTemp_IsbL-0200_RLatLon0.09_PT067H.grib2 2026-04-17 21:00 419K
20260417T18Z_MSC_RDPS_AirTemp_IsbL-0225_RLatLon0.09_PT067H.grib2 2026-04-17 21:00 419K
20260417T18Z_MSC_RDPS_AirTemp_IsbL-0250_RLatLon0.09_PT067H.grib2 2026-04-17 21:00 424K
20260417T18Z_MSC_RDPS_AirTemp_IsbL-0275_RLatLon0.09_PT067H.grib2 2026-04-17 21:00 399K
20260417T18Z_MSC_RDPS_AirTemp_IsbL-0300_RLatLon0.09_PT067H.grib2 2026-04-17 21:00 403K
20260417T18Z_MSC_RDPS_AirTemp_IsbL-0350_RLatLon0.09_PT067H.grib2 2026-04-17 21:00 417K
20260417T18Z_MSC_RDPS_AirTemp_IsbL-0400_RLatLon0.09_PT067H.grib2 2026-04-17 21:00 421K
20260417T18Z_MSC_RDPS_AirTemp_IsbL-0450_RLatLon0.09_PT067H.grib2 2026-04-17 21:00 397K
20260417T18Z_MSC_RDPS_AirTemp_IsbL-0500_RLatLon0.09_PT067H.grib2 2026-04-17 21:00 411K
20260417T18Z_MSC_RDPS_AirTemp_IsbL-0550_RLatLon0.09_PT067H.grib2 2026-04-17 21:00 429K
20260417T18Z_MSC_RDPS_AirTemp_IsbL-0600_RLatLon0.09_PT067H.grib2 2026-04-17 21:00 448K
20260417T18Z_MSC_RDPS_AirTemp_IsbL-0650_RLatLon0.09_PT067H.grib2 2026-04-17 21:00 465K
20260417T18Z_MSC_RDPS_AirTemp_IsbL-0700_RLatLon0.09_PT067H.grib2 2026-04-17 21:00 490K
20260417T18Z_MSC_RDPS_AirTemp_IsbL-0750_RLatLon0.09_PT067H.grib2 2026-04-17 21:00 534K
20260417T18Z_MSC_RDPS_AirTemp_IsbL-0800_RLatLon0.09_PT067H.grib2 2026-04-17 21:00 593K
20260417T18Z_MSC_RDPS_AirTemp_IsbL-0850_RLatLon0.09_PT067H.grib2 2026-04-17 21:00 647K
20260417T18Z_MSC_RDPS_AirTemp_IsbL-0875_RLatLon0.09_PT067H.grib2 2026-04-17 21:00 529K
20260417T18Z_MSC_RDPS_AirTemp_IsbL-0900_RLatLon0.09_PT067H.grib2 2026-04-17 21:00 529K
20260417T18Z_MSC_RDPS_AirTemp_IsbL-0925_RLatLon0.09_PT067H.grib2 2026-04-17 21:00 519K
20260417T18Z_MSC_RDPS_AirTemp_IsbL-0950_RLatLon0.09_PT067H.grib2 2026-04-17 21:00 519K
20260417T18Z_MSC_RDPS_AirTemp_IsbL-0970_RLatLon0.09_PT067H.grib2 2026-04-17 21:00 519K
20260417T18Z_MSC_RDPS_AirTemp_IsbL-0985_RLatLon0.09_PT067H.grib2 2026-04-17 21:00 514K
20260417T18Z_MSC_RDPS_AirTemp_IsbL-1000_RLatLon0.09_PT067H.grib2 2026-04-17 21:00 506K
20260417T18Z_MSC_RDPS_AirTemp_IsbL-1015_RLatLon0.09_PT067H.grib2 2026-04-17 21:00 504K
20260417T18Z_MSC_RDPS_Albedo_Sfc_RLatLon0.09_PT067H.grib2 2026-04-17 21:00 160K
20260417T18Z_MSC_RDPS_CAPE_Sfc_RLatLon0.09_PT067H.grib2 2026-04-17 21:00 1.6M
20260417T18Z_MSC_RDPS_CIN_Sfc_RLatLon0.09_PT067H.grib2 2026-04-17 21:00 1.0M
20260417T18Z_MSC_RDPS_CloudWater_EAtm_RLatLon0.09_PT067H.grib2 2026-04-17 21:00 215K
20260417T18Z_MSC_RDPS_ConvectivePrecip-Accum_Sfc_RLatLon0.09_PT067H.grib2 2026-04-17 21:00 1.2M
20260417T18Z_MSC_RDPS_DewPointDepression_AGL-2m_RLatLon0.09_PT067H.grib2 2026-04-17 21:00 402K
20260417T18Z_MSC_RDPS_DewPointDepression_IsbL-0001_RLatLon0.09_PT067H.grib2 2026-04-17 21:00 193
20260417T18Z_MSC_RDPS_DewPointDepression_IsbL-0005_RLatLon0.09_PT067H.grib2 2026-04-17 21:00 193
20260417T18Z_MSC_RDPS_DewPointDepression_IsbL-0010_RLatLon0.09_PT067H.grib2 2026-04-17 21:00 193
20260417T18Z_MSC_RDPS_DewPointDepression_IsbL-0020_RLatLon0.09_PT067H.grib2 2026-04-17 21:00 193
20260417T18Z_MSC_RDPS_DewPointDepression_IsbL-0030_RLatLon0.09_PT067H.grib2 2026-04-17 21:00 193
20260417T18Z_MSC_RDPS_DewPointDepression_IsbL-0050_RLatLon0.09_PT067H.grib2 2026-04-17 21:00 103K
20260417T18Z_MSC_RDPS_DewPointDepression_IsbL-0100_RLatLon0.09_PT067H.grib2 2026-04-17 21:00 126K
20260417T18Z_MSC_RDPS_DewPointDepression_IsbL-0150_RLatLon0.09_PT067H.grib2 2026-04-17 21:00 156K
20260417T18Z_MSC_RDPS_DewPointDepression_IsbL-0175_RLatLon0.09_PT067H.grib2 2026-04-17 21:00 183K
20260417T18Z_MSC_RDPS_DewPointDepression_IsbL-0200_RLatLon0.09_PT067H.grib2 2026-04-17 21:00 214K
20260417T18Z_MSC_RDPS_DewPointDepression_IsbL-0225_RLatLon0.09_PT067H.grib2 2026-04-17 21:00 249K
20260417T18Z_MSC_RDPS_DewPointDepression_IsbL-0250_RLatLon0.09_PT067H.grib2 2026-04-17 21:00 281K
20260417T18Z_MSC_RDPS_DewPointDepression_IsbL-0275_RLatLon0.09_PT067H.grib2 2026-04-17 21:00 289K
20260417T18Z_MSC_RDPS_DewPointDepression_IsbL-0300_RLatLon0.09_PT067H.grib2 2026-04-17 21:00 313K
20260417T18Z_MSC_RDPS_DewPointDepression_IsbL-0350_RLatLon0.09_PT067H.grib2 2026-04-17 21:00 330K
20260417T18Z_MSC_RDPS_DewPointDepression_IsbL-0400_RLatLon0.09_PT067H.grib2 2026-04-17 21:00 346K
20260417T18Z_MSC_RDPS_DewPointDepression_IsbL-0450_RLatLon0.09_PT067H.grib2 2026-04-17 21:00 361K
20260417T18Z_MSC_RDPS_DewPointDepression_IsbL-0500_RLatLon0.09_PT067H.grib2 2026-04-17 21:00 371K
20260417T18Z_MSC_RDPS_DewPointDepression_IsbL-0550_RLatLon0.09_PT067H.grib2 2026-04-17 21:00 383K
20260417T18Z_MSC_RDPS_DewPointDepression_IsbL-0600_RLatLon0.09_PT067H.grib2 2026-04-17 21:00 394K
20260417T18Z_MSC_RDPS_DewPointDepression_IsbL-0650_RLatLon0.09_PT067H.grib2 2026-04-17 21:00 396K
20260417T18Z_MSC_RDPS_DewPointDepression_IsbL-0700_RLatLon0.09_PT067H.grib2 2026-04-17 21:00 403K
20260417T18Z_MSC_RDPS_DewPointDepression_IsbL-0750_RLatLon0.09_PT067H.grib2 2026-04-17 21:00 423K
20260417T18Z_MSC_RDPS_DewPointDepression_IsbL-0800_RLatLon0.09_PT067H.grib2 2026-04-17 21:00 454K
20260417T18Z_MSC_RDPS_DewPointDepression_IsbL-0850_RLatLon0.09_PT067H.grib2 2026-04-17 21:00 470K
20260417T18Z_MSC_RDPS_DewPointDepression_IsbL-0875_RLatLon0.09_PT067H.grib2 2026-04-17 21:00 466K
20260417T18Z_MSC_RDPS_DewPointDepression_IsbL-0900_RLatLon0.09_PT067H.grib2 2026-04-17 21:00 456K
20260417T18Z_MSC_RDPS_DewPointDepression_IsbL-0925_RLatLon0.09_PT067H.grib2 2026-04-17 21:00 445K
20260417T18Z_MSC_RDPS_DewPointDepression_IsbL-0950_RLatLon0.09_PT067H.grib2 2026-04-17 21:00 441K
20260417T18Z_MSC_RDPS_DewPointDepression_IsbL-0970_RLatLon0.09_PT067H.grib2 2026-04-17 21:00 437K
20260417T18Z_MSC_RDPS_DewPointDepression_IsbL-0985_RLatLon0.09_PT067H.grib2 2026-04-17 21:00 435K
20260417T18Z_MSC_RDPS_DewPointDepression_IsbL-1000_RLatLon0.09_PT067H.grib2 2026-04-17 21:00 433K
20260417T18Z_MSC_RDPS_DewPointDepression_IsbL-1015_RLatLon0.09_PT067H.grib2 2026-04-17 21:00 423K
20260417T18Z_MSC_RDPS_DewPoint_AGL-2m_RLatLon0.09_PT067H.grib2 2026-04-17 21:00 405K
20260417T18Z_MSC_RDPS_DownwardLongwaveRadiationFlux-Accum_Sfc_RLatLon0.09_PT067H.grib2 2026-04-17 21:00 411K
20260417T18Z_MSC_RDPS_DownwardShortwaveRadiationFlux-Accum_NTAtm_RLatLon0.09_PT067H.grib2 2026-04-17 21:00 103K
20260417T18Z_MSC_RDPS_DownwardShortwaveRadiationFlux-Accum_Sfc_RLatLon0.09_PT067H.grib2 2026-04-17 21:00 586K
20260417T18Z_MSC_RDPS_FreezingRain-Accum1h_Sfc_RLatLon0.09_PT067H.grib2 2026-04-17 21:00 22K
20260417T18Z_MSC_RDPS_FreezingRain-Accum_Sfc_RLatLon0.09_PT067H.grib2 2026-04-17 21:00 150K
20260417T18Z_MSC_RDPS_GeopotentialHeight_IsbL-0001_RLatLon0.09_PT067H.grib2 2026-04-17 21:00 270K
20260417T18Z_MSC_RDPS_GeopotentialHeight_IsbL-0005_RLatLon0.09_PT067H.grib2 2026-04-17 21:00 238K
20260417T18Z_MSC_RDPS_GeopotentialHeight_IsbL-0010_RLatLon0.09_PT067H.grib2 2026-04-17 21:00 313K
20260417T18Z_MSC_RDPS_GeopotentialHeight_IsbL-0020_RLatLon0.09_PT067H.grib2 2026-04-17 21:00 309K
20260417T18Z_MSC_RDPS_GeopotentialHeight_IsbL-0030_RLatLon0.09_PT067H.grib2 2026-04-17 21:00 311K
20260417T18Z_MSC_RDPS_GeopotentialHeight_IsbL-0050_RLatLon0.09_PT067H.grib2 2026-04-17 21:00 345K
20260417T18Z_MSC_RDPS_GeopotentialHeight_IsbL-0100_RLatLon0.09_PT067H.grib2 2026-04-17 21:00 289K
20260417T18Z_MSC_RDPS_GeopotentialHeight_IsbL-0150_RLatLon0.09_PT067H.grib2 2026-04-17 21:00 260K
20260417T18Z_MSC_RDPS_GeopotentialHeight_IsbL-0175_RLatLon0.09_PT067H.grib2 2026-04-17 21:00 262K
20260417T18Z_MSC_RDPS_GeopotentialHeight_IsbL-0200_RLatLon0.09_PT067H.grib2 2026-04-17 21:00 264K
20260417T18Z_MSC_RDPS_GeopotentialHeight_IsbL-0225_RLatLon0.09_PT067H.grib2 2026-04-17 21:00 265K
20260417T18Z_MSC_RDPS_GeopotentialHeight_IsbL-0250_RLatLon0.09_PT067H.grib2 2026-04-17 21:00 266K
20260417T18Z_MSC_RDPS_GeopotentialHeight_IsbL-0275_RLatLon0.09_PT067H.grib2 2026-04-17 21:00 265K
20260417T18Z_MSC_RDPS_GeopotentialHeight_IsbL-0300_RLatLon0.09_PT067H.grib2 2026-04-17 21:00 264K
20260417T18Z_MSC_RDPS_GeopotentialHeight_IsbL-0350_RLatLon0.09_PT067H.grib2 2026-04-17 21:00 232K
20260417T18Z_MSC_RDPS_GeopotentialHeight_IsbL-0400_RLatLon0.09_PT067H.grib2 2026-04-17 21:00 229K
20260417T18Z_MSC_RDPS_GeopotentialHeight_IsbL-0450_RLatLon0.09_PT067H.grib2 2026-04-17 21:00 226K
20260417T18Z_MSC_RDPS_GeopotentialHeight_IsbL-0500_RLatLon0.09_PT067H.grib2 2026-04-17 21:00 296K
20260417T18Z_MSC_RDPS_GeopotentialHeight_IsbL-0550_RLatLon0.09_PT067H.grib2 2026-04-17 21:00 292K
20260417T18Z_MSC_RDPS_GeopotentialHeight_IsbL-0600_RLatLon0.09_PT067H.grib2 2026-04-17 21:00 290K
20260417T18Z_MSC_RDPS_GeopotentialHeight_IsbL-0650_RLatLon0.09_PT067H.grib2 2026-04-17 21:00 261K
20260417T18Z_MSC_RDPS_GeopotentialHeight_IsbL-0700_RLatLon0.09_PT067H.grib2 2026-04-17 21:00 260K
20260417T18Z_MSC_RDPS_GeopotentialHeight_IsbL-0750_RLatLon0.09_PT067H.grib2 2026-04-17 21:00 262K
20260417T18Z_MSC_RDPS_GeopotentialHeight_IsbL-0800_RLatLon0.09_PT067H.grib2 2026-04-17 21:00 270K
20260417T18Z_MSC_RDPS_GeopotentialHeight_IsbL-0850_RLatLon0.09_PT067H.grib2 2026-04-17 21:00 363K
20260417T18Z_MSC_RDPS_GeopotentialHeight_IsbL-0875_RLatLon0.09_PT067H.grib2 2026-04-17 21:00 366K
20260417T18Z_MSC_RDPS_GeopotentialHeight_IsbL-0900_RLatLon0.09_PT067H.grib2 2026-04-17 21:00 369K
20260417T18Z_MSC_RDPS_GeopotentialHeight_IsbL-0925_RLatLon0.09_PT067H.grib2 2026-04-17 21:00 372K
20260417T18Z_MSC_RDPS_GeopotentialHeight_IsbL-0950_RLatLon0.09_PT067H.grib2 2026-04-17 21:00 373K
20260417T18Z_MSC_RDPS_GeopotentialHeight_IsbL-0970_RLatLon0.09_PT067H.grib2 2026-04-17 21:00 378K
20260417T18Z_MSC_RDPS_GeopotentialHeight_IsbL-0985_RLatLon0.09_PT067H.grib2 2026-04-17 21:00 388K
20260417T18Z_MSC_RDPS_GeopotentialHeight_IsbL-1000_RLatLon0.09_PT067H.grib2 2026-04-17 21:00 401K
20260417T18Z_MSC_RDPS_GeopotentialHeight_IsbL-1015_RLatLon0.09_PT067H.grib2 2026-04-17 21:00 417K
20260417T18Z_MSC_RDPS_Humidex_Sfc_RLatLon0.09_PT067H.grib2 2026-04-17 21:00 2.4M
20260417T18Z_MSC_RDPS_IcePellets-Accum1h_Sfc_RLatLon0.09_PT067H.grib2 2026-04-17 21:00 4.4K
20260417T18Z_MSC_RDPS_IcePellets-Accum_Sfc_RLatLon0.09_PT067H.grib2 2026-04-17 21:00 60K
20260417T18Z_MSC_RDPS_KIndex_Sfc_RLatLon0.09_PT067H.grib2 2026-04-17 21:00 2.5M
20260417T18Z_MSC_RDPS_LatentHeatNetFlux_Sfc_RLatLon0.09_PT067H.grib2 2026-04-17 21:00 345K
20260417T18Z_MSC_RDPS_LiftedIndex-MU-VT_IsbL-0500_RLatLon0.09_PT067H.grib2 2026-04-17 21:00 2.4M
20260417T18Z_MSC_RDPS_NetLongwaveRadiationFlux-Accum_Sfc_RLatLon0.09_PT067H.grib2 2026-04-17 21:00 588K
20260417T18Z_MSC_RDPS_NetShortwaveRadiationFlux-Accum_Sfc_RLatLon0.09_PT067H.grib2 2026-04-17 21:00 601K
20260417T18Z_MSC_RDPS_PlanetaryBoundaryLayerHeight_Sfc_RLatLon0.09_PT067H.grib2 2026-04-17 21:00 1.1M
20260417T18Z_MSC_RDPS_Precip-Accum1h_Sfc_RLatLon0.09_PT067H.grib2 2026-04-17 21:00 1.2M
20260417T18Z_MSC_RDPS_Precip-Accum_Sfc_RLatLon0.09_PT067H.grib2 2026-04-17 21:00 2.0M
20260417T18Z_MSC_RDPS_PrecipRate_Sfc_RLatLon0.09_PT067H.grib2 2026-04-17 21:00 178K
20260417T18Z_MSC_RDPS_PrecipType-Instant_Sfc_RLatLon0.09_PT067H.grib2 2026-04-17 21:00 584K
20260417T18Z_MSC_RDPS_Pressure-Trend3h_Sfc_RLatLon0.09_PT067H.grib2 2026-04-17 21:00 1.2M
20260417T18Z_MSC_RDPS_Pressure_MSL_RLatLon0.09_PT067H.grib2 2026-04-17 21:00 300K
20260417T18Z_MSC_RDPS_Pressure_PVU-1.5_RLatLon0.09_PT067H.grib2 2026-04-17 21:00 2.3M
20260417T18Z_MSC_RDPS_Pressure_PVU-1_RLatLon0.09_PT067H.grib2 2026-04-17 21:00 2.4M
20260417T18Z_MSC_RDPS_Pressure_PVU-2_RLatLon0.09_PT067H.grib2 2026-04-17 21:00 2.4M
20260417T18Z_MSC_RDPS_Pressure_Sfc_RLatLon0.09_PT067H.grib2 2026-04-17 21:00 503K
20260417T18Z_MSC_RDPS_RadiativeTemp_Sfc_RLatLon0.09_PT067H.grib2 2026-04-17 21:00 310K
20260417T18Z_MSC_RDPS_Rain-Accum1h_Sfc_RLatLon0.09_PT067H.grib2 2026-04-17 21:00 525K
20260417T18Z_MSC_RDPS_Rain-Accum_Sfc_RLatLon0.09_PT067H.grib2 2026-04-17 21:00 1.7M
20260417T18Z_MSC_RDPS_RelativeHumidity_AGL-2m_RLatLon0.09_PT067H.grib2 2026-04-17 21:00 1.0M
20260417T18Z_MSC_RDPS_RelativeHumidity_IsbL-0010_RLatLon0.09_PT067H.grib2 2026-04-17 21:00 557K
20260417T18Z_MSC_RDPS_RelativeHumidity_IsbL-0020_RLatLon0.09_PT067H.grib2 2026-04-17 21:00 576K
20260417T18Z_MSC_RDPS_RelativeHumidity_IsbL-0030_RLatLon0.09_PT067H.grib2 2026-04-17 21:00 550K
20260417T18Z_MSC_RDPS_RelativeHumidity_IsbL-0050_RLatLon0.09_PT067H.grib2 2026-04-17 21:00 344K
20260417T18Z_MSC_RDPS_RelativeHumidity_IsbL-0100_RLatLon0.09_PT067H.grib2 2026-04-17 21:00 264K
20260417T18Z_MSC_RDPS_RelativeHumidity_IsbL-0150_RLatLon0.09_PT067H.grib2 2026-04-17 21:00 377K
20260417T18Z_MSC_RDPS_RelativeHumidity_IsbL-0175_RLatLon0.09_PT067H.grib2 2026-04-17 21:00 470K
20260417T18Z_MSC_RDPS_RelativeHumidity_IsbL-0200_RLatLon0.09_PT067H.grib2 2026-04-17 21:00 547K
20260417T18Z_MSC_RDPS_RelativeHumidity_IsbL-0225_RLatLon0.09_PT067H.grib2 2026-04-17 21:00 611K
20260417T18Z_MSC_RDPS_RelativeHumidity_IsbL-0250_RLatLon0.09_PT067H.grib2 2026-04-17 21:00 672K
20260417T18Z_MSC_RDPS_RelativeHumidity_IsbL-0275_RLatLon0.09_PT067H.grib2 2026-04-17 21:00 693K
20260417T18Z_MSC_RDPS_RelativeHumidity_IsbL-0300_RLatLon0.09_PT067H.grib2 2026-04-17 21:00 735K
20260417T18Z_MSC_RDPS_RelativeHumidity_IsbL-0350_RLatLon0.09_PT067H.grib2 2026-04-17 21:00 759K
20260417T18Z_MSC_RDPS_RelativeHumidity_IsbL-0400_RLatLon0.09_PT067H.grib2 2026-04-17 21:00 780K
20260417T18Z_MSC_RDPS_RelativeHumidity_IsbL-0450_RLatLon0.09_PT067H.grib2 2026-04-17 21:00 796K
20260417T18Z_MSC_RDPS_RelativeHumidity_IsbL-0500_RLatLon0.09_PT067H.grib2 2026-04-17 21:00 809K
20260417T18Z_MSC_RDPS_RelativeHumidity_IsbL-0550_RLatLon0.09_PT067H.grib2 2026-04-17 21:00 831K
20260417T18Z_MSC_RDPS_RelativeHumidity_IsbL-0600_RLatLon0.09_PT067H.grib2 2026-04-17 21:00 860K
20260417T18Z_MSC_RDPS_RelativeHumidity_IsbL-0650_RLatLon0.09_PT067H.grib2 2026-04-17 21:00 860K
20260417T18Z_MSC_RDPS_RelativeHumidity_IsbL-0700_RLatLon0.09_PT067H.grib2 2026-04-17 21:00 887K
20260417T18Z_MSC_RDPS_RelativeHumidity_IsbL-0750_RLatLon0.09_PT067H.grib2 2026-04-17 21:00 930K
20260417T18Z_MSC_RDPS_RelativeHumidity_IsbL-0800_RLatLon0.09_PT067H.grib2 2026-04-17 21:00 1.0M
20260417T18Z_MSC_RDPS_RelativeHumidity_IsbL-0850_RLatLon0.09_PT067H.grib2 2026-04-17 21:00 1.0M
20260417T18Z_MSC_RDPS_RelativeHumidity_IsbL-0875_RLatLon0.09_PT067H.grib2 2026-04-17 21:00 1.1M
20260417T18Z_MSC_RDPS_RelativeHumidity_IsbL-0900_RLatLon0.09_PT067H.grib2 2026-04-17 21:00 1.1M
20260417T18Z_MSC_RDPS_RelativeHumidity_IsbL-0925_RLatLon0.09_PT067H.grib2 2026-04-17 21:00 1.1M
20260417T18Z_MSC_RDPS_RelativeHumidity_IsbL-0950_RLatLon0.09_PT067H.grib2 2026-04-17 21:00 1.1M
20260417T18Z_MSC_RDPS_RelativeHumidity_IsbL-0970_RLatLon0.09_PT067H.grib2 2026-04-17 21:00 1.1M
20260417T18Z_MSC_RDPS_RelativeHumidity_IsbL-0985_RLatLon0.09_PT067H.grib2 2026-04-17 21:00 1.0M
20260417T18Z_MSC_RDPS_RelativeHumidity_IsbL-1000_RLatLon0.09_PT067H.grib2 2026-04-17 21:00 1.0M
20260417T18Z_MSC_RDPS_RelativeHumidity_IsbL-1015_RLatLon0.09_PT067H.grib2 2026-04-17 21:00 1.0M
20260417T18Z_MSC_RDPS_Runoff-Accum_Sfc_RLatLon0.09_PT067H.grib2 2026-04-17 21:00 70K
20260417T18Z_MSC_RDPS_SWEATIndex_Sfc_RLatLon0.09_PT067H.grib2 2026-04-17 21:00 2.4M
20260417T18Z_MSC_RDPS_SeeingIndex_EAtm_RLatLon0.09_PT067H.grib2 2026-04-17 21:00 1.0M
20260417T18Z_MSC_RDPS_SensibleHeatNetFlux_Sfc_RLatLon0.09_PT067H.grib2 2026-04-17 21:00 329K
20260417T18Z_MSC_RDPS_ShowalterIndex_IsbL-0500_RLatLon0.09_PT067H.grib2 2026-04-17 21:00 2.6M
20260417T18Z_MSC_RDPS_SkyTransparencyIndex_EAtm_RLatLon0.09_PT067H.grib2 2026-04-17 21:00 730K
20260417T18Z_MSC_RDPS_Snow-Accum1h_Sfc_RLatLon0.09_PT067H.grib2 2026-04-17 21:00 440K
20260417T18Z_MSC_RDPS_Snow-Accum_Sfc_RLatLon0.09_PT067H.grib2 2026-04-17 21:00 787K
20260417T18Z_MSC_RDPS_SnowDensity_Sfc_RLatLon0.09_PT067H.grib2 2026-04-17 21:00 184K
20260417T18Z_MSC_RDPS_SnowDepth_Sfc_RLatLon0.09_PT067H.grib2 2026-04-17 21:00 728K
20260417T18Z_MSC_RDPS_SoilTemp_DBS-0to10cm_RLatLon0.09_PT067H.grib2 2026-04-17 21:00 237K
20260417T18Z_MSC_RDPS_SoilTemp_Sfc_RLatLon0.09_PT067H.grib2 2026-04-17 21:00 286K
20260417T18Z_MSC_RDPS_SoilVolumetricIceContent_Sfc_RLatLon0.09_PT067H.grib2 2026-04-17 21:00 176K
20260417T18Z_MSC_RDPS_SoilVolumetricWaterContent_DBS-0to10cm_RLatLon0.09_PT067H.grib2 2026-04-17 21:00 250K
20260417T18Z_MSC_RDPS_SoilVolumetricWaterContent_DBS-0to1cm_RLatLon0.09_PT067H.grib2 2026-04-17 21:00 340K
20260417T18Z_MSC_RDPS_SpecificHumidity_AGL-120m_RLatLon0.09_PT067H.grib2 2026-04-17 21:00 477K
20260417T18Z_MSC_RDPS_SpecificHumidity_AGL-2m_RLatLon0.09_PT067H.grib2 2026-04-17 21:00 643K
20260417T18Z_MSC_RDPS_SpecificHumidity_AGL-40m_RLatLon0.09_PT067H.grib2 2026-04-17 21:00 484K
20260417T18Z_MSC_RDPS_SpecificHumidity_AGL-80m_RLatLon0.09_PT067H.grib2 2026-04-17 21:00 480K
20260417T18Z_MSC_RDPS_SpecificHumidity_IsbL-0001_RLatLon0.09_PT067H.grib2 2026-04-17 21:00 318K
20260417T18Z_MSC_RDPS_SpecificHumidity_IsbL-0005_RLatLon0.09_PT067H.grib2 2026-04-17 21:00 398K
20260417T18Z_MSC_RDPS_SpecificHumidity_IsbL-0010_RLatLon0.09_PT067H.grib2 2026-04-17 21:00 370K
20260417T18Z_MSC_RDPS_SpecificHumidity_IsbL-0020_RLatLon0.09_PT067H.grib2 2026-04-17 21:00 365K
20260417T18Z_MSC_RDPS_SpecificHumidity_IsbL-0030_RLatLon0.09_PT067H.grib2 2026-04-17 21:00 423K
20260417T18Z_MSC_RDPS_SpecificHumidity_IsbL-0050_RLatLon0.09_PT067H.grib2 2026-04-17 21:00 463K
20260417T18Z_MSC_RDPS_SpecificHumidity_IsbL-0100_RLatLon0.09_PT067H.grib2 2026-04-17 21:00 403K
20260417T18Z_MSC_RDPS_SpecificHumidity_IsbL-0150_RLatLon0.09_PT067H.grib2 2026-04-17 21:00 543K
20260417T18Z_MSC_RDPS_SpecificHumidity_IsbL-0175_RLatLon0.09_PT067H.grib2 2026-04-17 21:00 527K
20260417T18Z_MSC_RDPS_SpecificHumidity_IsbL-0200_RLatLon0.09_PT067H.grib2 2026-04-17 21:00 433K
20260417T18Z_MSC_RDPS_SpecificHumidity_IsbL-0225_RLatLon0.09_PT067H.grib2 2026-04-17 21:00 535K
20260417T18Z_MSC_RDPS_SpecificHumidity_IsbL-0250_RLatLon0.09_PT067H.grib2 2026-04-17 21:00 531K
20260417T18Z_MSC_RDPS_SpecificHumidity_IsbL-0275_RLatLon0.09_PT067H.grib2 2026-04-17 21:00 448K
20260417T18Z_MSC_RDPS_SpecificHumidity_IsbL-0300_RLatLon0.09_PT067H.grib2 2026-04-17 21:00 522K
20260417T18Z_MSC_RDPS_SpecificHumidity_IsbL-0350_RLatLon0.09_PT067H.grib2 2026-04-17 21:00 522K
20260417T18Z_MSC_RDPS_SpecificHumidity_IsbL-0400_RLatLon0.09_PT067H.grib2 2026-04-17 21:00 510K
20260417T18Z_MSC_RDPS_SpecificHumidity_IsbL-0450_RLatLon0.09_PT067H.grib2 2026-04-17 21:00 570K
20260417T18Z_MSC_RDPS_SpecificHumidity_IsbL-0500_RLatLon0.09_PT067H.grib2 2026-04-17 21:00 511K
20260417T18Z_MSC_RDPS_SpecificHumidity_IsbL-0550_RLatLon0.09_PT067H.grib2 2026-04-17 21:00 569K
20260417T18Z_MSC_RDPS_SpecificHumidity_IsbL-0600_RLatLon0.09_PT067H.grib2 2026-04-17 21:00 637K
20260417T18Z_MSC_RDPS_SpecificHumidity_IsbL-0650_RLatLon0.09_PT067H.grib2 2026-04-17 21:00 549K
20260417T18Z_MSC_RDPS_SpecificHumidity_IsbL-0700_RLatLon0.09_PT067H.grib2 2026-04-17 21:00 584K
20260417T18Z_MSC_RDPS_SpecificHumidity_IsbL-0750_RLatLon0.09_PT067H.grib2 2026-04-17 21:00 637K
20260417T18Z_MSC_RDPS_SpecificHumidity_IsbL-0800_RLatLon0.09_PT067H.grib2 2026-04-17 21:00 711K
20260417T18Z_MSC_RDPS_SpecificHumidity_IsbL-0850_RLatLon0.09_PT067H.grib2 2026-04-17 21:00 785K
20260417T18Z_MSC_RDPS_SpecificHumidity_IsbL-0875_RLatLon0.09_PT067H.grib2 2026-04-17 21:00 802K
20260417T18Z_MSC_RDPS_SpecificHumidity_IsbL-0900_RLatLon0.09_PT067H.grib2 2026-04-17 21:00 811K
20260417T18Z_MSC_RDPS_SpecificHumidity_IsbL-0925_RLatLon0.09_PT067H.grib2 2026-04-17 21:00 813K
20260417T18Z_MSC_RDPS_SpecificHumidity_IsbL-0950_RLatLon0.09_PT067H.grib2 2026-04-17 21:00 815K
20260417T18Z_MSC_RDPS_SpecificHumidity_IsbL-0970_RLatLon0.09_PT067H.grib2 2026-04-17 21:00 811K
20260417T18Z_MSC_RDPS_SpecificHumidity_IsbL-0985_RLatLon0.09_PT067H.grib2 2026-04-17 21:00 806K
20260417T18Z_MSC_RDPS_SpecificHumidity_IsbL-1000_RLatLon0.09_PT067H.grib2 2026-04-17 21:00 800K
20260417T18Z_MSC_RDPS_SpecificHumidity_IsbL-1015_RLatLon0.09_PT067H.grib2 2026-04-17 21:00 654K
20260417T18Z_MSC_RDPS_SpecificHumidity_Sfc_RLatLon0.09_PT067H.grib2 2026-04-17 21:00 291K
20260417T18Z_MSC_RDPS_StormRelativeHelicity_EtaL-10000_RLatLon0.09_PT067H.grib2 2026-04-17 21:00 1.2M
20260417T18Z_MSC_RDPS_StormSeverityIndex_EtaL-10000_RLatLon0.09_PT067H.grib2 2026-04-17 21:00 1.2M
20260417T18Z_MSC_RDPS_Thickness_IsbL-0850to0700_RLatLon0.09_PT067H.grib2 2026-04-17 21:00 182K
20260417T18Z_MSC_RDPS_Thickness_IsbL-1000to0500_RLatLon0.09_PT067H.grib2 2026-04-17 21:00 202K
20260417T18Z_MSC_RDPS_Thickness_IsbL-1000to0850_RLatLon0.09_PT067H.grib2 2026-04-17 21:00 190K
20260417T18Z_MSC_RDPS_TotalCloudCover_Sfc_RLatLon0.09_PT067H.grib2 2026-04-17 21:00 661K
20260417T18Z_MSC_RDPS_TotalTotalsIndex_Sfc_RLatLon0.09_PT067H.grib2 2026-04-17 21:00 2.4M
20260417T18Z_MSC_RDPS_UVIndex-ClearSky_Sfc_RLatLon0.09_PT067H.grib2 2026-04-17 21:00 176K
20260417T18Z_MSC_RDPS_UVIndex_Sfc_RLatLon0.09_PT067H.grib2 2026-04-17 21:00 387K
20260417T18Z_MSC_RDPS_UpwardLongwaveRadiationFlux_NTAtm_RLatLon0.09_PT067H.grib2 2026-04-17 21:00 475K
20260417T18Z_MSC_RDPS_UpwardShortwaveRadiationFlux_NTAtm_RLatLon0.09_PT067H.grib2 2026-04-17 21:00 338K
20260417T18Z_MSC_RDPS_VerticalVelocity_IsbL-0250_RLatLon0.09_PT067H.grib2 2026-04-17 21:00 558K
20260417T18Z_MSC_RDPS_VerticalVelocity_IsbL-0500_RLatLon0.09_PT067H.grib2 2026-04-17 21:00 511K
20260417T18Z_MSC_RDPS_VerticalVelocity_IsbL-0700_RLatLon0.09_PT067H.grib2 2026-04-17 21:00 459K
20260417T18Z_MSC_RDPS_VerticalVelocity_IsbL-0850_RLatLon0.09_PT067H.grib2 2026-04-17 21:00 661K
20260417T18Z_MSC_RDPS_VerticalWindShear_EtaL-6500_RLatLon0.09_PT067H.grib2 2026-04-17 21:00 1.2M
20260417T18Z_MSC_RDPS_WindChill_Sfc_RLatLon0.09_PT067H.grib2 2026-04-17 21:00 1.3M
20260417T18Z_MSC_RDPS_WindDir_AGL-10m_RLatLon0.09_PT067H.grib2 2026-04-17 21:00 1.0M
20260417T18Z_MSC_RDPS_WindDir_AGL-120m_RLatLon0.09_PT067H.grib2 2026-04-17 21:00 609K
20260417T18Z_MSC_RDPS_WindDir_AGL-40m_RLatLon0.09_PT067H.grib2 2026-04-17 21:00 641K
20260417T18Z_MSC_RDPS_WindDir_AGL-80m_RLatLon0.09_PT067H.grib2 2026-04-17 21:00 621K
20260417T18Z_MSC_RDPS_WindDir_IsbL-0001_RLatLon0.09_PT067H.grib2 2026-04-17 21:00 286K
20260417T18Z_MSC_RDPS_WindDir_IsbL-0005_RLatLon0.09_PT067H.grib2 2026-04-17 21:00 347K
20260417T18Z_MSC_RDPS_WindDir_IsbL-0010_RLatLon0.09_PT067H.grib2 2026-04-17 21:00 366K
20260417T18Z_MSC_RDPS_WindDir_IsbL-0020_RLatLon0.09_PT067H.grib2 2026-04-17 21:00 402K
20260417T18Z_MSC_RDPS_WindDir_IsbL-0030_RLatLon0.09_PT067H.grib2 2026-04-17 21:00 420K
20260417T18Z_MSC_RDPS_WindDir_IsbL-0050_RLatLon0.09_PT067H.grib2 2026-04-17 21:00 432K
20260417T18Z_MSC_RDPS_WindDir_IsbL-0100_RLatLon0.09_PT067H.grib2 2026-04-17 21:00 425K
20260417T18Z_MSC_RDPS_WindDir_IsbL-0150_RLatLon0.09_PT067H.grib2 2026-04-17 21:00 409K
20260417T18Z_MSC_RDPS_WindDir_IsbL-0175_RLatLon0.09_PT067H.grib2 2026-04-17 21:00 431K
20260417T18Z_MSC_RDPS_WindDir_IsbL-0200_RLatLon0.09_PT067H.grib2 2026-04-17 21:00 444K
20260417T18Z_MSC_RDPS_WindDir_IsbL-0225_RLatLon0.09_PT067H.grib2 2026-04-17 21:00 445K
20260417T18Z_MSC_RDPS_WindDir_IsbL-0250_RLatLon0.09_PT067H.grib2 2026-04-17 21:00 438K
20260417T18Z_MSC_RDPS_WindDir_IsbL-0275_RLatLon0.09_PT067H.grib2 2026-04-17 21:00 452K
20260417T18Z_MSC_RDPS_WindDir_IsbL-0300_RLatLon0.09_PT067H.grib2 2026-04-17 21:00 449K
20260417T18Z_MSC_RDPS_WindDir_IsbL-0350_RLatLon0.09_PT067H.grib2 2026-04-17 21:00 476K
20260417T18Z_MSC_RDPS_WindDir_IsbL-0400_RLatLon0.09_PT067H.grib2 2026-04-17 21:00 497K
20260417T18Z_MSC_RDPS_WindDir_IsbL-0450_RLatLon0.09_PT067H.grib2 2026-04-17 21:00 514K
20260417T18Z_MSC_RDPS_WindDir_IsbL-0500_RLatLon0.09_PT067H.grib2 2026-04-17 21:00 533K
20260417T18Z_MSC_RDPS_WindDir_IsbL-0550_RLatLon0.09_PT067H.grib2 2026-04-17 21:00 553K
20260417T18Z_MSC_RDPS_WindDir_IsbL-0600_RLatLon0.09_PT067H.grib2 2026-04-17 21:00 579K
20260417T18Z_MSC_RDPS_WindDir_IsbL-0650_RLatLon0.09_PT067H.grib2 2026-04-17 21:00 611K
20260417T18Z_MSC_RDPS_WindDir_IsbL-0700_RLatLon0.09_PT067H.grib2 2026-04-17 21:00 648K
20260417T18Z_MSC_RDPS_WindDir_IsbL-0750_RLatLon0.09_PT067H.grib2 2026-04-17 21:00 695K
20260417T18Z_MSC_RDPS_WindDir_IsbL-0800_RLatLon0.09_PT067H.grib2 2026-04-17 21:00 768K
20260417T18Z_MSC_RDPS_WindDir_IsbL-0850_RLatLon0.09_PT067H.grib2 2026-04-17 21:00 843K
20260417T18Z_MSC_RDPS_WindDir_IsbL-0875_RLatLon0.09_PT067H.grib2 2026-04-17 21:00 870K
20260417T18Z_MSC_RDPS_WindDir_IsbL-0900_RLatLon0.09_PT067H.grib2 2026-04-17 21:00 895K
20260417T18Z_MSC_RDPS_WindDir_IsbL-0925_RLatLon0.09_PT067H.grib2 2026-04-17 21:00 909K
20260417T18Z_MSC_RDPS_WindDir_IsbL-0950_RLatLon0.09_PT067H.grib2 2026-04-17 21:00 909K
20260417T18Z_MSC_RDPS_WindDir_IsbL-0970_RLatLon0.09_PT067H.grib2 2026-04-17 21:00 918K
20260417T18Z_MSC_RDPS_WindDir_IsbL-0985_RLatLon0.09_PT067H.grib2 2026-04-17 21:00 930K
20260417T18Z_MSC_RDPS_WindDir_IsbL-1000_RLatLon0.09_PT067H.grib2 2026-04-17 21:00 949K
20260417T18Z_MSC_RDPS_WindDir_IsbL-1015_RLatLon0.09_PT067H.grib2 2026-04-17 21:00 970K
20260417T18Z_MSC_RDPS_WindGust-Max_AGL-10m_RLatLon0.09_PT067H.grib2 2026-04-17 21:00 822K
20260417T18Z_MSC_RDPS_WindGust-Min_AGL-10m_RLatLon0.09_PT067H.grib2 2026-04-17 21:00 932K
20260417T18Z_MSC_RDPS_WindGust_AGL-10m_RLatLon0.09_PT067H.grib2 2026-04-17 21:00 953K
20260417T18Z_MSC_RDPS_WindSpeed_AGL-10m_RLatLon0.09_PT067H.grib2 2026-04-17 21:00 860K
20260417T18Z_MSC_RDPS_WindSpeed_AGL-120m_RLatLon0.09_PT067H.grib2 2026-04-17 21:00 564K
20260417T18Z_MSC_RDPS_WindSpeed_AGL-40m_RLatLon0.09_PT067H.grib2 2026-04-17 21:00 565K
20260417T18Z_MSC_RDPS_WindSpeed_AGL-80m_RLatLon0.09_PT067H.grib2 2026-04-17 21:00 564K
20260417T18Z_MSC_RDPS_WindSpeed_IsbL-0001_RLatLon0.09_PT067H.grib2 2026-04-17 21:00 248K
20260417T18Z_MSC_RDPS_WindSpeed_IsbL-0005_RLatLon0.09_PT067H.grib2 2026-04-17 21:00 301K
20260417T18Z_MSC_RDPS_WindSpeed_IsbL-0010_RLatLon0.09_PT067H.grib2 2026-04-17 21:00 317K
20260417T18Z_MSC_RDPS_WindSpeed_IsbL-0020_RLatLon0.09_PT067H.grib2 2026-04-17 21:00 336K
20260417T18Z_MSC_RDPS_WindSpeed_IsbL-0030_RLatLon0.09_PT067H.grib2 2026-04-17 21:00 337K
20260417T18Z_MSC_RDPS_WindSpeed_IsbL-0050_RLatLon0.09_PT067H.grib2 2026-04-17 21:00 481K
20260417T18Z_MSC_RDPS_WindSpeed_IsbL-0100_RLatLon0.09_PT067H.grib2 2026-04-17 21:00 450K
20260417T18Z_MSC_RDPS_WindSpeed_IsbL-0150_RLatLon0.09_PT067H.grib2 2026-04-17 21:00 375K
20260417T18Z_MSC_RDPS_WindSpeed_IsbL-0175_RLatLon0.09_PT067H.grib2 2026-04-17 21:00 401K
20260417T18Z_MSC_RDPS_WindSpeed_IsbL-0200_RLatLon0.09_PT067H.grib2 2026-04-17 21:00 438K
20260417T18Z_MSC_RDPS_WindSpeed_IsbL-0225_RLatLon0.09_PT067H.grib2 2026-04-17 21:00 442K
20260417T18Z_MSC_RDPS_WindSpeed_IsbL-0250_RLatLon0.09_PT067H.grib2 2026-04-17 21:00 443K
20260417T18Z_MSC_RDPS_WindSpeed_IsbL-0275_RLatLon0.09_PT067H.grib2 2026-04-17 21:00 457K
20260417T18Z_MSC_RDPS_WindSpeed_IsbL-0300_RLatLon0.09_PT067H.grib2 2026-04-17 21:00 452K
20260417T18Z_MSC_RDPS_WindSpeed_IsbL-0350_RLatLon0.09_PT067H.grib2 2026-04-17 21:00 464K
20260417T18Z_MSC_RDPS_WindSpeed_IsbL-0400_RLatLon0.09_PT067H.grib2 2026-04-17 21:00 472K
20260417T18Z_MSC_RDPS_WindSpeed_IsbL-0450_RLatLon0.09_PT067H.grib2 2026-04-17 21:00 458K
20260417T18Z_MSC_RDPS_WindSpeed_IsbL-0500_RLatLon0.09_PT067H.grib2 2026-04-17 21:00 461K
20260417T18Z_MSC_RDPS_WindSpeed_IsbL-0550_RLatLon0.09_PT067H.grib2 2026-04-17 21:00 580K
20260417T18Z_MSC_RDPS_WindSpeed_IsbL-0600_RLatLon0.09_PT067H.grib2 2026-04-17 21:00 588K
20260417T18Z_MSC_RDPS_WindSpeed_IsbL-0650_RLatLon0.09_PT067H.grib2 2026-04-17 21:00 610K
20260417T18Z_MSC_RDPS_WindSpeed_IsbL-0700_RLatLon0.09_PT067H.grib2 2026-04-17 21:00 513K
20260417T18Z_MSC_RDPS_WindSpeed_IsbL-0750_RLatLon0.09_PT067H.grib2 2026-04-17 21:00 544K
20260417T18Z_MSC_RDPS_WindSpeed_IsbL-0800_RLatLon0.09_PT067H.grib2 2026-04-17 21:00 726K
20260417T18Z_MSC_RDPS_WindSpeed_IsbL-0850_RLatLon0.09_PT067H.grib2 2026-04-17 21:00 780K
20260417T18Z_MSC_RDPS_WindSpeed_IsbL-0875_RLatLon0.09_PT067H.grib2 2026-04-17 21:00 799K
20260417T18Z_MSC_RDPS_WindSpeed_IsbL-0900_RLatLon0.09_PT067H.grib2 2026-04-17 21:00 814K
20260417T18Z_MSC_RDPS_WindSpeed_IsbL-0925_RLatLon0.09_PT067H.grib2 2026-04-17 21:00 826K
20260417T18Z_MSC_RDPS_WindSpeed_IsbL-0950_RLatLon0.09_PT067H.grib2 2026-04-17 21:00 872K
20260417T18Z_MSC_RDPS_WindSpeed_IsbL-0970_RLatLon0.09_PT067H.grib2 2026-04-17 21:00 872K
20260417T18Z_MSC_RDPS_WindSpeed_IsbL-0985_RLatLon0.09_PT067H.grib2 2026-04-17 21:00 870K
20260417T18Z_MSC_RDPS_WindSpeed_IsbL-1000_RLatLon0.09_PT067H.grib2 2026-04-17 21:00 870K
20260417T18Z_MSC_RDPS_WindSpeed_IsbL-1015_RLatLon0.09_PT067H.grib2 2026-04-17 21:00 863K
20260417T18Z_MSC_RDPS_WindU_AGL-10m_RLatLon0.09_PT067H.grib2 2026-04-17 21:00 443K
20260417T18Z_MSC_RDPS_WindU_AGL-120m_RLatLon0.09_PT067H.grib2 2026-04-17 21:00 548K
20260417T18Z_MSC_RDPS_WindU_AGL-40m_RLatLon0.09_PT067H.grib2 2026-04-17 21:00 551K
20260417T18Z_MSC_RDPS_WindU_AGL-80m_RLatLon0.09_PT067H.grib2 2026-04-17 21:00 549K
20260417T18Z_MSC_RDPS_WindU_IsbL-0001_RLatLon0.09_PT067H.grib2 2026-04-17 21:00 291K
20260417T18Z_MSC_RDPS_WindU_IsbL-0005_RLatLon0.09_PT067H.grib2 2026-04-17 21:00 338K
20260417T18Z_MSC_RDPS_WindU_IsbL-0010_RLatLon0.09_PT067H.grib2 2026-04-17 21:00 349K
20260417T18Z_MSC_RDPS_WindU_IsbL-0020_RLatLon0.09_PT067H.grib2 2026-04-17 21:00 335K
20260417T18Z_MSC_RDPS_WindU_IsbL-0030_RLatLon0.09_PT067H.grib2 2026-04-17 21:00 366K
20260417T18Z_MSC_RDPS_WindU_IsbL-0050_RLatLon0.09_PT067H.grib2 2026-04-17 21:00 365K
20260417T18Z_MSC_RDPS_WindU_IsbL-0100_RLatLon0.09_PT067H.grib2 2026-04-17 21:00 442K
20260417T18Z_MSC_RDPS_WindU_IsbL-0150_RLatLon0.09_PT067H.grib2 2026-04-17 21:00 392K
20260417T18Z_MSC_RDPS_WindU_IsbL-0175_RLatLon0.09_PT067H.grib2 2026-04-17 21:00 416K
20260417T18Z_MSC_RDPS_WindU_IsbL-0200_RLatLon0.09_PT067H.grib2 2026-04-17 21:00 432K
20260417T18Z_MSC_RDPS_WindU_IsbL-0225_RLatLon0.09_PT067H.grib2 2026-04-17 21:00 434K
20260417T18Z_MSC_RDPS_WindU_IsbL-0250_RLatLon0.09_PT067H.grib2 2026-04-17 21:00 433K
20260417T18Z_MSC_RDPS_WindU_IsbL-0275_RLatLon0.09_PT067H.grib2 2026-04-17 21:00 348K
20260417T18Z_MSC_RDPS_WindU_IsbL-0300_RLatLon0.09_PT067H.grib2 2026-04-17 21:00 343K
20260417T18Z_MSC_RDPS_WindU_IsbL-0350_RLatLon0.09_PT067H.grib2 2026-04-17 21:00 351K
20260417T18Z_MSC_RDPS_WindU_IsbL-0400_RLatLon0.09_PT067H.grib2 2026-04-17 21:00 357K
20260417T18Z_MSC_RDPS_WindU_IsbL-0450_RLatLon0.09_PT067H.grib2 2026-04-17 21:00 359K
20260417T18Z_MSC_RDPS_WindU_IsbL-0500_RLatLon0.09_PT067H.grib2 2026-04-17 21:00 465K
20260417T18Z_MSC_RDPS_WindU_IsbL-0550_RLatLon0.09_PT067H.grib2 2026-04-17 21:00 466K
20260417T18Z_MSC_RDPS_WindU_IsbL-0600_RLatLon0.09_PT067H.grib2 2026-04-17 21:00 475K
20260417T18Z_MSC_RDPS_WindU_IsbL-0650_RLatLon0.09_PT067H.grib2 2026-04-17 21:00 494K
20260417T18Z_MSC_RDPS_WindU_IsbL-0700_RLatLon0.09_PT067H.grib2 2026-04-17 21:00 517K
20260417T18Z_MSC_RDPS_WindU_IsbL-0750_RLatLon0.09_PT067H.grib2 2026-04-17 21:00 547K
20260417T18Z_MSC_RDPS_WindU_IsbL-0800_RLatLon0.09_PT067H.grib2 2026-04-17 21:00 584K
20260417T18Z_MSC_RDPS_WindU_IsbL-0850_RLatLon0.09_PT067H.grib2 2026-04-17 21:00 641K
20260417T18Z_MSC_RDPS_WindU_IsbL-0875_RLatLon0.09_PT067H.grib2 2026-04-17 21:00 656K
20260417T18Z_MSC_RDPS_WindU_IsbL-0900_RLatLon0.09_PT067H.grib2 2026-04-17 21:00 668K
20260417T18Z_MSC_RDPS_WindU_IsbL-0925_RLatLon0.09_PT067H.grib2 2026-04-17 21:00 675K
20260417T18Z_MSC_RDPS_WindU_IsbL-0950_RLatLon0.09_PT067H.grib2 2026-04-17 21:00 666K
20260417T18Z_MSC_RDPS_WindU_IsbL-0970_RLatLon0.09_PT067H.grib2 2026-04-17 21:00 664K
20260417T18Z_MSC_RDPS_WindU_IsbL-0985_RLatLon0.09_PT067H.grib2 2026-04-17 21:00 664K
20260417T18Z_MSC_RDPS_WindU_IsbL-1000_RLatLon0.09_PT067H.grib2 2026-04-17 21:00 805K
20260417T18Z_MSC_RDPS_WindU_IsbL-1015_RLatLon0.09_PT067H.grib2 2026-04-17 21:00 799K
20260417T18Z_MSC_RDPS_WindV_AGL-10m_RLatLon0.09_PT067H.grib2 2026-04-17 21:00 437K
20260417T18Z_MSC_RDPS_WindV_AGL-120m_RLatLon0.09_PT067H.grib2 2026-04-17 21:00 425K
20260417T18Z_MSC_RDPS_WindV_AGL-40m_RLatLon0.09_PT067H.grib2 2026-04-17 21:00 426K
20260417T18Z_MSC_RDPS_WindV_AGL-80m_RLatLon0.09_PT067H.grib2 2026-04-17 21:00 426K
20260417T18Z_MSC_RDPS_WindV_IsbL-0001_RLatLon0.09_PT067H.grib2 2026-04-17 21:00 265K
20260417T18Z_MSC_RDPS_WindV_IsbL-0005_RLatLon0.09_PT067H.grib2 2026-04-17 21:00 335K
20260417T18Z_MSC_RDPS_WindV_IsbL-0010_RLatLon0.09_PT067H.grib2 2026-04-17 21:00 348K
20260417T18Z_MSC_RDPS_WindV_IsbL-0020_RLatLon0.09_PT067H.grib2 2026-04-17 21:00 330K
20260417T18Z_MSC_RDPS_WindV_IsbL-0030_RLatLon0.09_PT067H.grib2 2026-04-17 21:00 332K
20260417T18Z_MSC_RDPS_WindV_IsbL-0050_RLatLon0.09_PT067H.grib2 2026-04-17 21:00 366K
20260417T18Z_MSC_RDPS_WindV_IsbL-0100_RLatLon0.09_PT067H.grib2 2026-04-17 21:00 367K
20260417T18Z_MSC_RDPS_WindV_IsbL-0150_RLatLon0.09_PT067H.grib2 2026-04-17 21:00 389K
20260417T18Z_MSC_RDPS_WindV_IsbL-0175_RLatLon0.09_PT067H.grib2 2026-04-17 21:00 320K
20260417T18Z_MSC_RDPS_WindV_IsbL-0200_RLatLon0.09_PT067H.grib2 2026-04-17 21:00 335K
20260417T18Z_MSC_RDPS_WindV_IsbL-0225_RLatLon0.09_PT067H.grib2 2026-04-17 21:00 336K
20260417T18Z_MSC_RDPS_WindV_IsbL-0250_RLatLon0.09_PT067H.grib2 2026-04-17 21:00 336K
20260417T18Z_MSC_RDPS_WindV_IsbL-0275_RLatLon0.09_PT067H.grib2 2026-04-17 21:00 373K
20260417T18Z_MSC_RDPS_WindV_IsbL-0300_RLatLon0.09_PT067H.grib2 2026-04-17 21:00 369K
20260417T18Z_MSC_RDPS_WindV_IsbL-0350_RLatLon0.09_PT067H.grib2 2026-04-17 21:00 377K
20260417T18Z_MSC_RDPS_WindV_IsbL-0400_RLatLon0.09_PT067H.grib2 2026-04-17 21:00 381K
20260417T18Z_MSC_RDPS_WindV_IsbL-0450_RLatLon0.09_PT067H.grib2 2026-04-17 21:00 360K
20260417T18Z_MSC_RDPS_WindV_IsbL-0500_RLatLon0.09_PT067H.grib2 2026-04-17 21:00 464K
20260417T18Z_MSC_RDPS_WindV_IsbL-0550_RLatLon0.09_PT067H.grib2 2026-04-17 21:00 464K
20260417T18Z_MSC_RDPS_WindV_IsbL-0600_RLatLon0.09_PT067H.grib2 2026-04-17 21:00 473K
20260417T18Z_MSC_RDPS_WindV_IsbL-0650_RLatLon0.09_PT067H.grib2 2026-04-17 21:00 492K
20260417T18Z_MSC_RDPS_WindV_IsbL-0700_RLatLon0.09_PT067H.grib2 2026-04-17 21:00 516K
20260417T18Z_MSC_RDPS_WindV_IsbL-0750_RLatLon0.09_PT067H.grib2 2026-04-17 21:00 544K
20260417T18Z_MSC_RDPS_WindV_IsbL-0800_RLatLon0.09_PT067H.grib2 2026-04-17 21:00 591K
20260417T18Z_MSC_RDPS_WindV_IsbL-0850_RLatLon0.09_PT067H.grib2 2026-04-17 21:00 629K
20260417T18Z_MSC_RDPS_WindV_IsbL-0875_RLatLon0.09_PT067H.grib2 2026-04-17 21:00 644K
20260417T18Z_MSC_RDPS_WindV_IsbL-0900_RLatLon0.09_PT067H.grib2 2026-04-17 21:00 657K
20260417T18Z_MSC_RDPS_WindV_IsbL-0925_RLatLon0.09_PT067H.grib2 2026-04-17 21:00 664K
20260417T18Z_MSC_RDPS_WindV_IsbL-0950_RLatLon0.09_PT067H.grib2 2026-04-17 21:00 659K
20260417T18Z_MSC_RDPS_WindV_IsbL-0970_RLatLon0.09_PT067H.grib2 2026-04-17 21:00 657K
20260417T18Z_MSC_RDPS_WindV_IsbL-0985_RLatLon0.09_PT067H.grib2 2026-04-17 21:00 655K
20260417T18Z_MSC_RDPS_WindV_IsbL-1000_RLatLon0.09_PT067H.grib2 2026-04-17 21:00 656K
20260417T18Z_MSC_RDPS_WindV_IsbL-1015_RLatLon0.09_PT067H.grib2 2026-04-17 21:00 652K